MICROSAT-TD (43128 NORAD) Tracking and Keplerian Element Data

This shows tracking and keplerian element data for the satellite.

Feedback or suggestion? Click here.




ElementValue
Catalog43128
NameMICROSAT-TD
Epoch Orbit5288
Epoch Day349.16932408
Epoch Year2018
RAAN44.9301
Inclination96.8352
Eccentricity0.0007263
Argument of Perigee128.6621
Mean Anonmoly231.5294
Mean Motion15.70688857
Decay Rate0.00012715
L11 43128U 18004T 18349.16932408 .00012715 00000-0 10377-3 0 9996
L22 43128 96.8352 44.9301 0007263 128.6621 231.5294 15.70688857 52882

Live tracking and technical data element details for MICROSAT-TD (NORAD 43128). MICROSAT-TD can be tracked NOW for your location showing map with azimuth and elevation plus other details from your city location.

Track the satellite on the map from your city or location and see movement details for azimuth, elevation, latitude, longitude, range, height, and movement on the map or in text.







IsCatalogInMostPopularTable: catalog: 43128, numindb: 123
Update: records affected: 1



GetName: 43128 MICROSAT-TD

Hit Count: updated at: Sat, 15 Dec 2018 14:34:01 GMT